Location: Darmstadt
(49.8706°N, 8.6494°E)
Time: 07:15:43
(UTC+01:00)

SKYMED 2 - Pass Details

Date: 31 October 2020
Orbit: 621 x 623 km, 97.9° (Epoch: 03 December)

Event Time Altitude Azimuth Distance (km) Brightness Sun altitude
Rises 17:49:11 0° 23° (NNE) 2,916 6.7 -7.8°
Reaches altitude 10° 17:51:39 10° 35° (NE) 2,003 5.7 -8.2°
Maximum altitude 17:55:25 28° 94° (E) 1,179 4.5 -8.8°
Drops below altitude 10° 17:59:09 10° 154° (SSE) 1,988 6.0 -9.4°
Sets 18:01:35 0° 166° (SSE) 2,889 7.0 -9.8°
